DAL125 EGPH-EGCC

Flight info

Callsign DAL125
Flight time N/A
Altitude 23000
Route GOSAM P600 FENIK L612 LAKEY
Aircraft A320/M-SDE3FGHIRWY/LB1

Departure

Time 2026-04-20 15:01
Airport Edinburgh Airport (EGPH)

Arrival

Time N/A
Airport Manchester Airport (EGCC)
Time Latitude Longitude Altitude Speed Heading
2026-04-20 15:00 55.94431 -3.38916 122 ft 0 kts 48°
2026-04-20 15:00 55.94431 -3.38915 122 ft 1 kts 48°
2026-04-20 15:00 55.94479 -3.38777 119 ft 32 kts 59°
2026-04-20 15:00 55.94730 -3.38045 120 ft 100 kts 58°
2026-04-20 15:01 55.95187 -3.36692 167 ft 147 kts 60°
2026-04-20 15:01 55.95711 -3.35118 772 ft 148 kts 60°
2026-04-20 15:01 55.96361 -3.33704 1503 ft 149 kts 43°
2026-04-20 15:01 55.97138 -3.32458 2095 ft 158 kts 44°
2026-04-20 15:02 55.98005 -3.31063 2448 ft 180 kts 45°
2026-04-20 15:02 55.99011 -3.29442 2738 ft 205 kts 44°
2026-04-20 15:02 56.00311 -3.28103 3126 ft 234 kts 13°
2026-04-20 15:02 56.01982 -3.28492 3629 ft 258 kts 333°
2026-04-20 15:03 56.03271 -3.30765 4429 ft 268 kts 296°
2026-04-20 15:03 56.03627 -3.33957 5322 ft 270 kts 266°
2026-04-20 15:03 56.03312 -3.37325 5936 ft 270 kts 253°
2026-04-20 15:03 56.02740 -3.40547 6271 ft 272 kts 249°
2026-04-20 15:04 56.02119 -3.43685 6343 ft 272 kts 249°
2026-04-20 15:04 56.01502 -3.46925 6356 ft 271 kts 251°
2026-04-20 15:04 56.00945 -3.50120 6733 ft 275 kts 252°
2026-04-20 15:04 56.00419 -3.53407 7679 ft 276 kts 253°
2026-04-20 15:05 55.99909 -3.56786 8543 ft 282 kts 254°
2026-04-20 15:05 55.99416 -3.60165 9388 ft 287 kts 255°
2026-04-20 15:05 55.98917 -3.63649 10209 ft 292 kts 255°
2026-04-20 15:05 55.98408 -3.67228 10716 ft 308 kts 255°
2026-04-20 15:06 55.97853 -3.71121 10950 ft 332 kts 255°
2026-04-20 15:06 55.97262 -3.75251 11140 ft 354 kts 255°
2026-04-20 15:06 55.96651 -3.79516 11654 ft 363 kts 255°
2026-04-20 15:06 55.96014 -3.83951 12351 ft 368 kts 255°
2026-04-20 15:07 55.95379 -3.88343 13064 ft 371 kts 255°
2026-04-20 15:07 55.94723 -3.92863 13788 ft 374 kts 255°
2026-04-20 15:07 55.94031 -3.97311 14425 ft 377 kts 249°
2026-04-20 15:07 55.92792 -4.01434 15053 ft 379 kts 232°
2026-04-20 15:08 55.90910 -4.04769 15694 ft 380 kts 216°
2026-04-20 15:08 55.88755 -4.07512 16335 ft 383 kts 214°
2026-04-20 15:08 55.86600 -4.10239 16950 ft 386 kts 214°
2026-04-20 15:08 55.84403 -4.13018 17575 ft 389 kts 215°
2026-04-20 15:09 55.82167 -4.15852 18195 ft 392 kts 215°
2026-04-20 15:09 55.79937 -4.18683 18787 ft 395 kts 215°
2026-04-20 15:09 55.77702 -4.21573 19325 ft 398 kts 220°
2026-04-20 15:09 55.75945 -4.25276 19831 ft 400 kts 243°
2026-04-20 15:10 55.75145 -4.30028 20372 ft 401 kts 266°
2026-04-20 15:10 55.75469 -4.34832 20875 ft 401 kts 289°
2026-04-20 15:10 55.76877 -4.39130 21399 ft 403 kts 313°
2026-04-20 15:10 55.79131 -4.42079 21902 ft 406 kts 335°
2026-04-20 15:11 55.81894 -4.43235 22364 ft 412 kts 358°
2026-04-20 15:11 55.84715 -4.42386 22801 ft 418 kts 20°
2026-04-20 15:11 55.87184 -4.39672 23194 ft 424 kts 42°
2026-04-20 15:11 55.89204 -4.35790 23327 ft 430 kts 47°
2026-04-20 15:12 55.91243 -4.31827 23293 ft 439 kts 39°
2026-04-20 15:12 55.93884 -4.29270 23056 ft 430 kts
2026-04-20 15:12 55.96030 -4.29189 22438 ft 425 kts 345°